HASTNG-WX Weather Reports


time (UTC)temp
C
wind
direction
speed
KPH
gust
KPH
rain 1hr
cm
rain 24hr
cm
rain mn
cm
humidity
%
barometer
mb
20260503033050 2 210 6.4 0.0 0.00 0.00 0.00 65 986.4
20260503031529 2 205 6.4 0.0 0.00 0.00 0.00 65 986.4
20260503030057 3 217 6.4 0.0 0.00 0.00 0.00 65 986.4
20260503024529 3 223 6.4 0.0 0.00 0.00 0.00 60 986.9
20260503023049 3 225 6.4 0.0 0.00 0.00 0.00 64 986.9
20260503021529 3 228 8.0 0.0 0.00 0.00 0.00 64 986.9
20260503020056 3 230 8.0 0.0 0.00 0.00 0.00 64 986.9
20260503014529 3 237 8.0 0.0 0.00 0.00 0.00 61 986.3
20260503013047 4 238 8.0 0.0 0.00 0.00 0.00 61 986.3
20260503011529 4 232 8.0 0.0 0.00 0.00 0.00 61 986.3
20260503010055 5 236 8.0 0.0 0.00 0.00 0.00 61 986.3
20260503004529 5 237 8.0 0.0 0.00 0.00 0.00 48 987.0
20260503003043 6 231 6.4 0.0 0.00 0.00 0.00 48 987.3
20260503001529 6 245 6.4 0.0 0.00 0.00 0.00 48 987.3
20260503000055 7 262 6.4 0.0 0.00 0.00 0.00 48 987.3
20260502234530 7 278 9.7 0.0 0.00 0.00 0.00 41 987.0
20260502233042 7 266 12.9 0.0 0.00 0.00 0.00 43 987.1
20260502231530 7 267 14.5 0.0 0.00 0.00 0.00 43 987.1
20260502230056 7 271 16.1 0.0 0.00 0.00 0.00 43 987.1
20260502224530 8 273 17.7 0.0 0.00 0.00 0.00 40 987.5
20260502223048 8 270 17.7 0.0 0.00 0.00 0.00 42 988.1
20260502221530 8 270 17.7 0.0 0.00 0.00 0.00 42 988.1
20260502220055 8 270 17.7 0.0 0.00 0.00 0.00 42 988.1
20260502214530 8 271 17.7 0.0 0.00 0.00 0.00 44 988.3
20260502213048 8 271 16.1 0.0 0.00 0.00 0.00 39 987.9
20260502211530 8 266 16.1 0.0 0.00 0.00 0.00 39 987.8
20260502210058 8 264 16.1 0.0 0.00 0.00 0.00 39 987.8
20260502204530 8 265 16.1 0.0 0.00 0.00 0.00 42 988.2
20260502203048 8 267 17.7 0.0 0.00 0.00 0.00 39 988.8
20260502201530 8 269 17.7 0.0 0.00 0.00 0.00 39 988.8
20260502200055 8 270 17.7 0.0 0.00 0.00 0.00 39 988.8
20260502194530 8 271 17.7 0.0 0.00 0.00 0.00 43 988.9
20260502193043 8 274 17.7 0.0 0.00 0.00 0.00 43 988.9
20260502191530 8 276 17.7 0.0 0.00 0.00 0.00 43 989.0
20260502190055 8 276 19.3 0.0 0.00 0.00 0.00 43 989.0
20260502184529 8 278 17.7 0.0 0.00 0.00 0.00 45 988.8
20260502183049 7 281 16.1 0.0 0.00 0.00 0.00 42 988.9
20260502181529 8 285 14.5 0.0 0.00 0.00 0.00 42 988.9
20260502163049 7 275 12.9 0.0 0.00 0.00 0.00 40 988.6
20260502161529 7 279 12.9 0.0 0.00 0.00 0.00 40 988.6
20260502151530 6 288 9.7 0.0 0.00 0.00 0.00 48 988.7
20260502123047 1 319 8.0 0.0 0.00 0.00 0.00 80 988.9
20260502121529 1 322 8.0 0.0 0.00 0.00 0.00 80 988.9
20260502114530 0 311 6.4 0.0 0.00 0.00 0.00 85 988.6
20260502113051 0 294 3.2 0.0 0.00 0.00 0.00 84 988.7
20260502111530 0 275 3.2 0.0 0.00 0.00 0.00 84 988.7
20260502110058 0 275 3.2 0.0 0.00 0.00 0.00 84 988.7
20260502104529 0 270 3.2 0.0 0.00 0.00 0.00 82 988.4
20260502103048 0 265 3.2 0.0 0.00 0.00 0.00 87 988.8
20260502101530 0 252 3.2 0.0 0.00 0.00 0.00 87 988.8
20260502091529 0 255 3.2 0.0 0.00 0.00 0.00 87 988.3
20260502071530 0 301 4.8 0.0 0.00 0.00 0.00 81 987.5
20260502070055 0 311 6.4 0.0 0.00 0.00 0.00 81 987.5
20260502064530 0 306 4.8 0.0 0.00 0.00 0.00 77 988.5
20260502063049 0 301 4.8 0.0 0.00 0.00 0.00 79 988.4
20260502061529 0 298 6.4 0.0 0.00 0.00 0.00 79 988.4
20260502060105 0 300 6.4 0.0 0.00 0.00 0.00 79 988.4
20260502054530 0 304 6.4 0.0 0.00 0.00 0.00 72 987.5
20260502053048 0 304 8.0 0.0 0.00 0.00 0.00 77 988.1
20260502051529 0 300 6.4 0.0 0.00 0.00 0.00 77 988.1
20260502050058 1 306 6.4 0.0 0.00 0.00 0.00 77 988.1
20260502044530 1 311 6.4 0.0 0.00 0.00 0.00 68 987.6
20260502043047 1 337 8.0 0.0 0.00 0.00 0.00 73 987.8
20260502041529 1 333 9.7 0.0 0.00 0.00 0.00 73 987.8
20260502040057 1 313 8.0 0.0 0.00 0.00 0.00 73 987.8
20260502034529 1 298 4.8 0.0 0.00 0.00 0.00 63 987.2